CW1756 Weather Reports


time (UTC)temp
C
wind
direction
speed
KPH
gust
KPH
rain 1hr
cm
rain 24hr
cm
rain mn
cm
humidity
%
barometer
mb
20260507230725 15 360 6.4 17.7 0.00 0.00 0.00 44 1011.0
20260507220728 15 360 4.8 19.3 0.00 0.00 0.00 43 1010.1
20260507210722 17 360 6.4 27.4 0.00 0.00 0.00 40 1009.6
20260507200732 18 360 9.7 27.4 0.00 0.00 0.00 40 1009.9
20260507190737 17 360 4.8 32.2 0.00 0.00 0.00 41 1009.9
20260507180724 18 360 11.3 22.5 0.00 0.00 0.00 42 1010.0
20260507170719 17 360 9.7 25.7 0.00 0.00 0.00 46 1011.0
20260507160744 15 360 4.8 14.5 0.00 0.00 0.00 53 1011.7
20260507150738 14 360 3.2 12.9 0.00 0.00 0.00 61 1012.4
20260507140729 11 360 1.6 8.0 0.00 0.00 0.00 71 1013.4
20260507130745 10 360 6.4 17.7 0.00 0.03 0.00 77 1014.1
20260507120733 10 360 1.6 12.9 0.00 0.08 0.00 80 1014.2
20260507110727 10 360 4.8 12.9 0.00 0.10 0.00 79 1013.6
20260507100734 10 360 3.2 12.9 0.00 0.13 0.00 87 1012.8
20260507090724 10 360 0.0 4.8 0.00 0.13 0.00 88 1012.9
20260507080723 10 360 0.0 0.0 0.00 0.13 0.00 85 1012.7
20260507070721 10 360 0.0 1.6 0.00 0.13 0.00 83 1012.5
20260507060730 11 360 4.8 12.9 0.00 0.13 0.00 79 1012.9
20260507050731 11 360 11.3 19.3 0.00 0.13 0.00 84 1013.0
20260507040739 11 360 6.4 19.3 0.00 0.13 0.00 87 1012.2
20260507030730 12 360 3.2 12.9 0.00 0.13 0.13 87 1011.7
20260507020724 13 360 3.2 19.3 0.00 0.13 0.13 85 1011.7
20260507010750 14 360 4.8 20.9 0.00 0.13 0.13 82 1011.3
20260507000732 15 360 6.4 20.9 0.00 0.13 0.13 80 1012.1